Location: Marcé
(47.5801°N, 0.3280°W)
Time: 22:44:15
(UTC+01:00)

S-56A Canister/Altair - Pass Details

Date: 09 December 2021
Orbit: 633 x 2499 km, 38.9° (Epoch: 16 January)

Event Time Altitude Azimuth Distance (km) Brightness Sun altitude
Rises 01:28:39 0° 256° (WSW) 5,363 - -64.3°
Reaches altitude 10° 01:32:46 10° 251° (WSW) 4,075 - -64.0°
Maximum altitude 01:42:16 46° 183° (S) 1,670 - -63.4°
Drops below altitude 10° 01:48:40 10° 112° (ESE) 2,758 - -62.9°
Sets 01:50:57 0° 106° (ESE) 3,519 - -62.7°
